This is the latest recevied weather packets stored in our database for station/object KC2WGU. If no packets are shown the sender has not sent any weather packets the latest 10 day(s).
| Time | Temp. | Humidity | Pressure | Rain* | Wind** | Luminosity | Snow |
|---|---|---|---|---|---|---|---|
| 1777682416 | 9.44° C | 65% | 1009.3 hPa | 0 mm | - | 0 W/m² | - |
| 1777681817 | 9.44° C | 66% | 1009.1 hPa | 0 mm | - | 0 W/m² | - |
| 1777681216 | 9.44° C | 61% | 1008.9 hPa | 0 mm | - | 0 W/m² | - |
| 1777680617 | 9.44° C | 61% | 1008.7 hPa | 0 mm | - | 0 W/m² | - |
| 1777680017 | 10° C | 60% | 1008.6 hPa | 0 mm | - | 0 W/m² | - |
| 1777679416 | 10° C | 59% | 1008.6 hPa | 0 mm | - | 0 W/m² | - |
| 1777678817 | 10° C | 62% | 1008.7 hPa | 0 mm | - | 0 W/m² | - |
| 1777678217 | 10° C | 60% | 1008.7 hPa | 0 mm | - | 0 W/m² | - |
| 1777677618 | 10.56° C | 59% | 1008.6 hPa | 0 mm | - | 0 W/m² | - |
| 1777677017 | 10.56° C | 56% | 1008.6 hPa | 0 mm | - | 0 W/m² | - |
| 1777676419 | 11.11° C | 55% | 1008.5 hPa | 0 mm | - | 0 W/m² | - |
| 1777675816 | 11.11° C | 58% | 1008.4 hPa | 0 mm | - | 0 W/m² | - |
| 1777675216 | 11.11° C | 57% | 1008.4 hPa | 0 mm | - | 0 W/m² | - |
| 1777674618 | 11.11° C | 56% | 1008.3 hPa | 0 mm | - | 0 W/m² | - |
| 1777674017 | 11.11° C | 56% | 1008.4 hPa | 0 mm | - | 0 W/m² | - |
| 1777673416 | 11.11° C | 56% | 1008.4 hPa | 0 mm | - | 0 W/m² | - |
| 1777672816 | 11.11° C | 54% | 1008.4 hPa | 0 mm | - | 0 W/m² | - |
| 1777672216 | 11.67° C | 54% | 1008.4 hPa | 0 mm | - | 0 W/m² | - |
| 1777671617 | 11.67° C | 55% | 1008.4 hPa | 0 mm | - | 0 W/m² | - |
| 1777671016 | 11.67° C | 54% | 1008.2 hPa | 0 mm | - | 0 W/m² | - |
| 1777670416 | 11.67° C | 52% | 1008.3 hPa | 0 mm | - | 0 W/m² | - |
| 1777669817 | 11.67° C | 51% | 1008.2 hPa | 0 mm | - | 0 W/m² | - |
| 1777669217 | 12.22° C | 52% | 1008.1 hPa | 0 mm | - | 0 W/m² | - |
| 1777668617 | 12.22° C | 49% | 1008.2 hPa | 0 mm | - | 0 W/m² | - |
| 1777668017 | 12.78° C | 51% | 1008.2 hPa | 0 mm | - | 0 W/m² | - |
* Rain latest hour (hover to see other rain measurements)
** Current wind speed in m/s (hover to see current wind gust speed)